DW5310 Weather Reports


time (UTC)temp
C
wind
direction
speed
KPH
gust
KPH
rain 1hr
cm
rain 24hr
cm
rain mn
cm
humidity
%
barometer
mb
20260510230504 19 76 0.0 4.8 0.00 0.00 0.00 56 1018.5
20260510225504 19 47 3.2 9.7 0.00 0.00 0.00 57 1018.5
20260510225004 19 66 0.0 11.3 0.00 0.00 0.00 58 1018.5
20260510224504 18 92 0.0 11.3 0.00 0.00 0.00 58 1018.5
20260510223504 18 52 0.0 3.2 0.00 0.00 0.00 59 1018.5
20260510223004 18 119 0.0 3.2 0.00 0.00 0.00 59 1018.5
20260510222504 18 120 0.0 8.0 0.00 0.00 0.00 59 1018.5
20260510222004 18 305 0.0 12.9 0.00 0.00 0.00 60 1018.5
20260510221503 18 87 4.8 12.9 0.00 0.00 0.00 60 1018.5
20260510221004 18 58 1.6 14.5 0.00 0.00 0.00 61 1018.5
20260510220504 18 94 4.8 14.5 0.00 0.00 0.00 60 1018.5
20260510220005 19 344 1.6 14.5 0.00 0.00 0.00 62 1018.5
20260510215504 18 90 1.6 14.5 0.00 0.00 0.00 63 1018.5
20260510215004 18 35 3.2 9.7 0.00 0.00 0.00 63 1018.5
20260510214504 18 116 0.0 8.0 0.00 0.00 0.00 64 1018.5
20260510214004 17 79 0.0 8.0 0.00 0.00 0.00 64 1018.5
20260510213504 17 286 0.0 8.0 0.00 0.00 0.00 66 1018.5
20260510213003 17 85 0.0 8.0 0.00 0.00 0.00 65 1018.5
20260510212004 17 57 0.0 3.2 0.00 0.00 0.00 64 1018.5
20260510211504 17 197 0.0 8.0 0.00 0.00 0.00 64 1018.5
20260510211004 18 20 0.0 8.0 0.00 0.00 0.00 63 1018.5
20260510210504 18 54 0.0 8.0 0.00 0.00 0.00 66 1018.5
20260510210004 17 130 0.0 3.2 0.00 0.00 0.00 66 1017.5
20260510205504 17 202 0.0 0.0 0.00 0.00 0.00 66 1017.5
20260510205004 17 350 0.0 8.0 0.00 0.00 0.00 66 1017.5
20260510204503 17 305 1.6 9.7 0.00 0.00 0.00 67 1018.5
20260510203504 17 305 4.8 12.9 0.00 0.00 0.00 67 1018.5
20260510203003 17 305 0.0 3.2 0.00 0.00 0.00 66 1018.5
20260510202004 17 238 3.2 11.3 0.00 0.00 0.00 66 1018.5
20260510201504 17 62 1.6 11.3 0.00 0.00 0.00 66 1018.5
20260510201005 17 283 1.6 11.3 0.00 0.00 0.00 67 1018.5
20260510200504 17 243 0.0 3.2 0.00 0.00 0.00 69 1018.5
20260510200004 17 231 0.0 8.0 0.00 0.00 0.00 69 1018.5
20260510195504 16 61 0.0 8.0 0.00 0.00 0.00 70 1018.5
20260510194503 16 176 0.0 3.2 0.00 0.00 0.00 71 1018.5
20260510194005 16 69 0.0 0.0 0.00 0.00 0.00 71 1018.5
20260510193504 16 170 0.0 4.8 0.00 0.00 0.00 72 1018.5
20260510193006 15 91 0.0 8.0 0.00 0.00 0.00 71 1018.5
20260510192508 15 123 0.0 8.0 0.00 0.00 0.00 71 1018.5
20260510192007 15 147 0.0 0.0 0.00 0.00 0.00 72 1018.5
20260510191507 15 260 0.0 0.0 0.00 0.00 0.00 73 1018.5
20260510191006 15 282 0.0 0.0 0.00 0.00 0.00 73 1018.5
20260510190006 15 215 0.0 4.8 0.00 0.00 0.00 73 1018.5
20260510185506 15 166 0.0 0.0 0.00 0.00 0.00 73 1018.5
20260510185007 15 108 0.0 3.2 0.00 0.00 0.00 73 1018.5
20260510184506 15 202 0.0 3.2 0.00 0.00 0.00 73 1018.5
20260510184006 15 155 0.0 9.7 0.00 0.00 0.00 74 1018.5
20260510182506 15 152 1.6 9.7 0.00 0.00 0.00 74 1018.5
20260510182007 15 199 0.0 4.8 0.00 0.00 0.00 75 1018.5
20260510181507 15 178 0.0 11.3 0.00 0.00 0.00 75 1018.5
20260510181006 14 198 4.8 11.3 0.00 0.00 0.00 74 1018.5
20260510175507 14 238 0.0 8.0 0.00 0.00 0.00 74 1018.5
20260510175006 14 215 0.0 4.8 0.00 0.00 0.00 74 1018.5
20260510174506 14 141 0.0 11.3 0.00 0.00 0.00 74 1017.5
20260510174006 14 137 3.2 11.3 0.00 0.00 0.00 74 1017.5
20260510173506 14 260 0.0 0.0 0.00 0.00 0.00 74 1017.5
20260510173007 13 121 0.0 0.0 0.00 0.00 0.00 74 1017.5
20260510172507 13 56 0.0 0.0 0.00 0.00 0.00 74 1017.5
20260510171506 13 63 0.0 0.0 0.00 0.00 0.00 74 1017.5
20260510171006 13 311 0.0 0.0 0.00 0.00 0.00 74 1017.5
20260510170506 13 141 0.0 0.0 0.00 0.00 0.00 75 1017.5
20260510170007 13 200 0.0 0.0 0.00 0.00 0.00 75 1017.5
20260510165506 13 253 0.0 0.0 0.00 0.00 0.00 75 1017.5
20260510165006 13 145 0.0 0.0 0.00 0.00 0.00 75 1017.5
20260510164507 13 305 0.0 8.0 0.00 0.00 0.00 75 1017.5
20260510164006 13 171 0.0 8.0 0.00 0.00 0.00 76 1017.5
20260510163506 13 199 0.0 3.2 0.00 0.00 0.00 76 1017.5
20260510162506 13 117 1.6 9.7 0.00 0.00 0.00 77 1017.5
20260510162006 13 332 0.0 8.0 0.00 0.00 0.00 78 1017.5
20260510161506 13 80 0.0 8.0 0.00 0.00 0.00 79 1017.5
20260510161007 13 170 0.0 4.8 0.00 0.00 0.00 78 1017.5
20260510160506 12 51 0.0 4.8 0.00 0.00 0.00 80 1017.5
20260510160007 12 294 0.0 0.0 0.00 0.00 0.00 80 1017.5
20260510155506 12 137 0.0 0.0 0.00 0.00 0.00 80 1017.5
20260510155007 12 192 0.0 0.0 0.00 0.00 0.00 80 1017.5
20260510154506 12 116 0.0 0.0 0.00 0.00 0.00 80 1016.5
20260510154006 12 162 0.0 0.0 0.00 0.00 0.00 80 1016.5
20260510153506 12 54 0.0 0.0 0.00 0.00 0.00 80 1016.5
20260510152506 12 192 0.0 0.0 0.00 0.00 0.00 81 1016.5
20260510152006 12 84 0.0 0.0 0.00 0.00 0.00 81 1016.5
20260510151006 11 36 0.0 0.0 0.00 0.00 0.00 81 1016.5
20260510150006 11 144 0.0 0.0 0.00 0.00 0.00 82 1016.5
20260510145006 11 114 0.0 0.0 0.00 0.00 0.00 82 1016.5
20260510144506 11 305 0.0 0.0 0.00 0.00 0.00 82 1016.5
20260510144007 11 213 0.0 0.0 0.00 0.00 0.00 82 1016.5
20260510143505 11 42 0.0 0.0 0.00 0.00 0.00 82 1016.5
20260510142506 11 47 0.0 0.0 0.00 0.00 0.00 82 1015.5
20260510142006 11 125 0.0 0.0 0.00 0.00 0.00 82 1015.5
20260510141506 11 80 0.0 0.0 0.00 0.00 0.00 82 1016.5
20260510135506 11 125 0.0 0.0 0.00 0.00 0.00 82 1016.5
20260510135006 11 238 0.0 0.0 0.00 0.00 0.00 82 1016.5
20260510134506 11 238 0.0 0.0 0.00 0.00 0.00 83 1016.5
20260510134005 11 238 0.0 0.0 0.00 0.00 0.00 82 1016.5
20260510133006 11 238 0.0 0.0 0.00 0.00 0.00 82 1016.5
20260510132005 11 238 0.0 0.0 0.00 0.00 0.00 82 1016.5
20260510131506 11 238 0.0 0.0 0.00 0.00 0.00 82 1017.5
20260510131006 11 238 0.0 0.0 0.00 0.00 0.00 82 1017.5
20260510130007 11 238 0.0 0.0 0.00 0.00 0.00 81 1016.5
20260510125006 11 238 0.0 0.0 0.00 0.00 0.00 81 1016.5
20260510124506 11 193 0.0 0.0 0.00 0.00 0.00 81 1016.5
20260510124006 11 102 0.0 0.0 0.00 0.00 0.00 81 1016.5
20260510123506 11 102 0.0 0.0 0.00 0.00 0.00 81 1016.5
20260510123006 11 148 0.0 0.0 0.00 0.00 0.00 81 1016.5
20260510122506 11 170 0.0 0.0 0.00 0.00 0.00 80 1016.5
20260510122006 11 170 0.0 0.0 0.00 0.00 0.00 80 1016.5
20260510121506 11 170 0.0 0.0 0.00 0.00 0.00 80 1016.5
20260510120505 11 170 0.0 0.0 0.00 0.00 0.00 79 1016.5
20260510120005 11 170 0.0 0.0 0.00 0.00 0.00 79 1016.5
20260510115505 11 170 0.0 0.0 0.00 0.00 0.00 79 1016.5
20260510115006 11 170 0.0 0.0 0.00 0.00 0.00 79 1016.5
20260510114006 11 170 0.0 0.0 0.00 0.00 0.00 78 1016.5
20260510113506 11 170 0.0 0.0 0.00 0.00 0.00 78 1016.5
20260510113005 11 170 0.0 0.0 0.00 0.00 0.00 78 1016.5
20260510112506 12 170 0.0 0.0 0.00 0.00 0.00 77 1016.5
20260510112006 12 170 0.0 0.0 0.00 0.00 0.00 77 1016.5
20260510111506 12 148 0.0 0.0 0.00 0.00 0.00 76 1017.5
20260510111005 12 148 0.0 0.0 0.00 0.00 0.00 76 1017.5
20260510110506 12 58 0.0 0.0 0.00 0.00 0.00 76 1017.5
20260510105505 12 282 0.0 0.0 0.00 0.00 0.00 74 1016.5
20260510105006 12 282 0.0 0.0 0.00 0.00 0.00 74 1016.5
20260510104505 12 282 0.0 0.0 0.00 0.00 0.00 74 1016.5
20260510104006 12 282 0.0 0.0 0.00 0.00 0.00 74 1016.5
20260510103505 13 282 0.0 0.0 0.00 0.00 0.00 73 1016.5
20260510103006 13 282 0.0 0.0 0.00 0.00 0.00 73 1015.5
20260510102005 13 35 0.0 0.0 0.00 0.00 0.00 71 1015.5
20260510101005 13 35 0.0 0.0 0.00 0.00 0.00 70 1014.5
20260510100006 13 35 0.0 0.0 0.00 0.00 0.00 70 1014.5
20260510095506 13 35 0.0 0.0 0.00 0.00 0.00 69 1014.5
20260510095006 13 170 0.0 0.0 0.00 0.00 0.00 69 1014.5
20260510094505 13 170 0.0 0.0 0.00 0.00 0.00 69 1014.5
20260510094005 13 170 0.0 0.0 0.00 0.00 0.00 68 1014.5
20260510093505 14 170 0.0 0.0 0.00 0.00 0.00 68 1014.5
20260510093006 14 170 0.0 0.0 0.00 0.00 0.00 68 1014.5
20260510092505 14 170 0.0 0.0 0.00 0.00 0.00 67 1014.5
20260510092007 14 282 0.0 0.0 0.00 0.00 0.00 67 1014.5
20260510091005 14 282 0.0 0.0 0.00 0.00 0.00 66 1014.5
20260510090506 14 170 0.0 0.0 0.00 0.00 0.00 66 1014.5
20260510090005 14 170 0.0 0.0 0.00 0.00 0.00 66 1014.5
20260510085506 14 260 0.0 0.0 0.00 0.00 0.00 65 1014.5
20260510085005 15 305 0.0 0.0 0.00 0.00 0.00 65 1014.5
20260510084505 15 305 0.0 0.0 0.00 0.00 0.00 65 1014.5
20260510084005 15 305 0.0 0.0 0.00 0.00 0.00 64 1014.5
20260510083506 15 305 0.0 0.0 0.00 0.00 0.00 63 1014.5
20260510083005 15 305 0.0 0.0 0.00 0.00 0.00 63 1013.5
20260510082506 15 305 0.0 0.0 0.00 0.00 0.00 63 1013.5
20260510082006 15 305 0.0 0.0 0.00 0.00 0.00 62 1013.5
20260510081505 15 305 0.0 0.0 0.00 0.00 0.00 62 1014.5
20260510080505 15 305 0.0 0.0 0.00 0.00 0.00 61 1014.5
20260510080005 15 305 0.0 0.0 0.00 0.00 0.00 60 1014.5
20260510075505 15 305 0.0 0.0 0.00 0.00 0.00 60 1014.5
20260510075005 15 305 0.0 0.0 0.00 0.00 0.00 59 1014.5
20260510074505 15 305 0.0 0.0 0.00 0.00 0.00 59 1014.5
20260510073506 16 305 0.0 0.0 0.00 0.00 0.00 58 1014.5
20260510072505 16 305 0.0 0.0 0.00 0.00 0.00 57 1014.5
20260510071505 16 305 0.0 0.0 0.00 0.00 0.00 56 1014.5
20260510071005 16 305 0.0 0.0 0.00 0.00 0.00 56 1014.5
20260510070005 16 305 0.0 0.0 0.00 0.00 0.00 56 1014.5
20260510065505 16 305 0.0 0.0 0.00 0.00 0.00 55 1014.5
20260510065006 16 305 0.0 0.0 0.00 0.00 0.00 55 1014.5
20260510064006 16 305 0.0 0.0 0.00 0.00 0.00 55 1014.5
20260510063005 16 305 0.0 0.0 0.00 0.00 0.00 55 1013.5
20260510062505 16 305 0.0 0.0 0.00 0.00 0.00 55 1013.5
20260510061505 17 35 0.0 0.0 0.00 0.00 0.00 54 1014.5
20260510061006 17 215 0.0 0.0 0.00 0.00 0.00 54 1014.5
20260510060505 17 253 0.0 0.0 0.00 0.00 0.00 54 1014.5
20260510060006 17 150 0.0 0.0 0.00 0.00 0.00 54 1014.5
20260510055505 17 305 0.0 0.0 0.00 0.00 0.00 53 1014.5
20260510055005 17 246 0.0 0.0 0.00 0.00 0.00 53 1014.5
20260510054505 17 327 0.0 0.0 0.00 0.00 0.00 53 1014.5
20260510053505 17 125 0.0 0.0 0.00 0.00 0.00 52 1014.5
20260510052505 17 238 0.0 0.0 0.00 0.00 0.00 52 1014.5
20260510052005 18 238 0.0 0.0 0.00 0.00 0.00 51 1014.5
20260510051504 18 276 0.0 3.2 0.00 0.00 0.00 51 1014.5
20260510051004 18 260 0.0 3.2 0.00 0.00 0.00 51 1014.5
20260510050005 18 271 0.0 0.0 0.00 0.00 0.00 51 1014.5
20260510045505 18 238 0.0 0.0 0.00 0.00 0.00 50 1014.5
20260510045006 18 238 0.0 8.0 0.00 0.00 0.00 50 1014.5
20260510044506 18 284 1.6 8.0 0.00 0.00 0.00 50 1014.5
20260510044005 18 282 0.0 4.8 0.00 0.00 0.00 49 1014.5
20260510043004 18 260 0.0 0.0 0.00 0.00 0.00 49 1014.5
20260510042505 18 295 0.0 0.0 0.00 0.00 0.00 49 1014.5
20260510042005 18 292 0.0 0.0 0.00 0.00 0.00 48 1014.5
20260510041505 18 282 0.0 0.0 0.00 0.00 0.00 48 1014.5
20260510041005 18 282 0.0 0.0 0.00 0.00 0.00 48 1014.5
20260510040505 18 282 0.0 0.0 0.00 0.00 0.00 48 1014.5
20260510040005 18 282 0.0 0.0 0.00 0.00 0.00 47 1014.5
20260510035504 18 282 0.0 0.0 0.00 0.00 0.00 47 1014.5
20260510034505 19 282 0.0 0.0 0.00 0.00 0.00 46 1014.5
20260510034005 19 147 0.0 0.0 0.00 0.00 0.00 46 1014.5
20260510033505 19 305 0.0 0.0 0.00 0.00 0.00 46 1014.5
20260510033005 19 282 0.0 0.0 0.00 0.00 0.00 46 1014.5
20260510032505 19 282 0.0 0.0 0.00 0.00 0.00 45 1014.5
20260510031504 20 260 0.0 0.0 0.00 0.00 0.00 45 1014.5
20260510031004 20 260 0.0 0.0 0.00 0.00 0.00 44 1014.5
20260510030505 20 260 0.0 0.0 0.00 0.00 0.00 44 1014.5
20260510030005 20 260 0.0 0.0 0.00 0.00 0.00 43 1013.5
20260510025004 21 260 0.0 0.0 0.00 0.00 0.00 43 1013.5
20260510024505 21 260 0.0 0.0 0.00 0.00 0.00 42 1014.5
20260510024005 21 260 0.0 0.0 0.00 0.00 0.00 42 1014.5
20260510023504 21 282 0.0 0.0 0.00 0.00 0.00 42 1014.5
20260510023004 21 282 0.0 0.0 0.00 0.00 0.00 41 1014.5
20260510022505 21 282 0.0 0.0 0.00 0.00 0.00 41 1014.5
20260510022005 21 282 0.0 0.0 0.00 0.00 0.00 41 1014.5
20260510021505 21 282 0.0 0.0 0.00 0.00 0.00 40 1014.5
20260510021004 21 238 0.0 0.0 0.00 0.00 0.00 40 1014.5
20260510020504 22 238 0.0 0.0 0.00 0.00 0.00 39 1014.5
20260510020005 22 238 0.0 0.0 0.00 0.00 0.00 39 1014.5
20260510015505 22 238 0.0 0.0 0.00 0.00 0.00 39 1014.5
20260510015004 22 267 0.0 0.0 0.00 0.00 0.00 38 1014.5
20260510014505 22 305 0.0 0.0 0.00 0.00 0.00 38 1014.5
20260510014005 22 305 0.0 0.0 0.00 0.00 0.00 38 1014.5
20260510013005 22 215 0.0 0.0 0.00 0.00 0.00 38 1014.5
20260510012005 22 215 0.0 0.0 0.00 0.00 0.00 39 1014.5
20260510011505 23 305 0.0 0.0 0.00 0.00 0.00 39 1014.5
20260510010504 23 35 0.0 0.0 0.00 0.00 0.00 39 1014.5
20260510005005 23 192 0.0 0.0 0.00 0.00 0.00 41 1014.5
20260510004505 23 35 0.0 0.0 0.00 0.00 0.00 41 1014.5
20260510004004 23 35 0.0 0.0 0.00 0.00 0.00 41 1014.5
20260510003004 23 37 0.0 0.0 0.00 0.00 0.00 41 1014.5
20260510002504 23 92 0.0 0.0 0.00 0.00 0.00 41 1014.5
20260510002005 23 148 0.0 0.0 0.00 0.00 0.00 41 1014.5
20260510001005 23 193 0.0 0.0 0.00 0.00 0.00 40 1014.5
20260510000504 23 148 0.0 0.0 0.00 0.00 0.00 40 1014.5
20260509235504 24 35 0.0 0.0 0.00 0.00 0.00 41 1014.5
20260509234504 24 125 0.0 0.0 0.00 0.00 0.00 41 1014.5
20260509233505 24 34 0.0 0.0 0.00 0.00 0.00 41 1014.5
20260509233004 24 35 0.0 0.0 0.00 0.00 0.00 41 1014.5
20260509232504 24 63 0.0 0.0 0.00 0.00 0.00 41 1014.5
20260509232005 24 125 0.0 0.0 0.00 0.00 0.00 41 1014.5
20260509231504 25 243 0.0 0.0 0.00 0.00 0.00 42 1014.5